When you browse on this site, cookies collect data to enhance your experience and personalize the content and advertising you see.
Visit our Privacy Policy to learn more. By continuing to use the site, you agree to this use of cookies and data.
  • In Austria
  • List of Countries
  • For 7 days
  • Water Temperature
  • Weather Map
  • News
  • Weather Widgets
  • user-avatar
    Login

    Hourly Weather Yeghegnadzor

    Today, 17 February, Monday

    Time Temperature Precipitation Wind Pressure Humidity
    00:00 -2°C° 0 mm 1 mps 656 mmHg 84%
    01:00 -1°C° 0.1 mm 1 mps 656 mmHg 86%
    02:00 -1°C° 0.1 mm 1 mps 656 mmHg 87%
    03:00 -3°C° 0 mm 2 mps 656 mmHg 92%
    04:00 -3°C° 0.3 mm 2 mps 656 mmHg 92%
    05:00 -3°C° 0.3 mm 2 mps 656 mmHg 92%
    06:00 -3°C° 0.3 mm 2 mps 656 mmHg 93%
    07:00 -3°C° 0.2 mm 2 mps 657 mmHg 91%
    08:00 -2°C° 0.2 mm 2 mps 657 mmHg 90%
    09:00 0°C° 0 mm 1 mps 658 mmHg 88%
    10:00 +1°C° 0.3 mm 1 mps 658 mmHg 90%
    11:00 +1°C° 0.3 mm 1 mps 658 mmHg 91%
    12:00 +1°C° 0.3 mm 1 mps 657 mmHg 93%
    13:00 +1°C° 0.1 mm 1 mps 657 mmHg 93%
    14:00 -1°C° 0.1 mm 2 mps 657 mmHg 93%
    15:00 +1°C° 0.1 mm 2 mps 657 mmHg 93%
    16:00 +1°C° 0.1 mm 1 mps 657 mmHg 94%
    17:00 -1°C° 0.1 mm 1 mps 657 mmHg 94%
    18:00 -2°C° 0.1 mm 1 mps 657 mmHg 95%
    19:00 -2°C° 0 mm 1 mps 658 mmHg 93%
    20:00 -2°C° 0 mm 1 mps 658 mmHg 91%
    21:00 -3°C° 0 mm 1 mps 658 mmHg 89%
    22:00 -3°C° 0 mm 1 mps 658 mmHg 88%
    23:00 -4°C° 0 mm 1 mps 658 mmHg 87%

    Tomorrow, 18 February, Tuesday

    Time Temperature Precipitation Wind Pressure Humidity
    00:00 -4°C° 0 mm 1 mps 658 mmHg 86%
    01:00 -5°C° 0 mm 0 mps 658 mmHg 85%
    02:00 -5°C° 0 mm 0 mps 658 mmHg 84%
    03:00 -5°C° 0 mm 0 mps 658 mmHg 84%
    04:00 -5°C° 0 mm 0 mps 658 mmHg 82%
    05:00 -4°C° 0 mm 1 mps 658 mmHg 81%
    06:00 -4°C° 0 mm 1 mps 658 mmHg 80%
    07:00 -3°C° 0 mm 1 mps 659 mmHg 79%
    08:00 -2°C° 0 mm 0 mps 659 mmHg 78%
    09:00 -1°C° 0 mm 0 mps 660 mmHg 77%
    10:00 +1°C° 0 mm 1 mps 660 mmHg 80%
    11:00 +1°C° 0 mm 1 mps 659 mmHg 83%
    12:00 +2°C° 0 mm 1 mps 659 mmHg 86%
    13:00 +2°C° 0 mm 1 mps 659 mmHg 86%
    14:00 +3°C° 0 mm 1 mps 658 mmHg 86%
    15:00 +3°C° 0 mm 1 mps 658 mmHg 87%
    16:00 +1°C° 0 mm 1 mps 658 mmHg 86%
    17:00 0°C° 0 mm 1 mps 657 mmHg 86%
    18:00 -1°C° 0 mm 1 mps 657 mmHg 85%
    19:00 -2°C° 0 mm 1 mps 657 mmHg 84%
    20:00 -3°C° 0 mm 0 mps 657 mmHg 82%
    21:00 -3°C° 0 mm 0 mps 657 mmHg 80%
    22:00 -2°C° 0 mm 1 mps 657 mmHg 80%
    23:00 -2°C° 0 mm 1 mps 657 mmHg 81%

    Day after tomorrow, 19 February, Wednesday

    Time Temperature Precipitation Wind Pressure Humidity
    00:00 -2°C° 0 mm 1 mps 656 mmHg 81%
    01:00 -2°C° 0 mm 1 mps 656 mmHg 81%
    02:00 -3°C° 0 mm 1 mps 656 mmHg 81%
    03:00 -3°C° 0 mm 1 mps 655 mmHg 81%
    04:00 -3°C° 0 mm 1 mps 655 mmHg 81%
    05:00 -3°C° 0 mm 1 mps 654 mmHg 81%
    06:00 -3°C° 0 mm 1 mps 654 mmHg 81%
    07:00 -2°C° 0 mm 1 mps 654 mmHg 81%
    08:00 0°C° 0 mm 1 mps 654 mmHg 80%
    09:00 +1°C° 0 mm 1 mps 654 mmHg 80%
    10:00 +2°C° 0 mm 1 mps 654 mmHg 83%
    11:00 +2°C° 0 mm 1 mps 653 mmHg 86%
    12:00 +2°C° 0 mm 2 mps 653 mmHg 88%
    13:00 +3°C° 0 mm 1 mps 652 mmHg 88%
    14:00 +3°C° 0 mm 1 mps 652 mmHg 88%
    15:00 +3°C° 0 mm 1 mps 651 mmHg 88%
    16:00 +3°C° 0 mm 1 mps 651 mmHg 90%
    17:00 +2°C° 0 mm 1 mps 651 mmHg 91%
    18:00 +1°C° 0 mm 0 mps 651 mmHg 92%
    19:00 +1°C° 0 mm 0 mps 650 mmHg 93%
    20:00 0°C° 0 mm 0 mps 650 mmHg 93%
    21:00 0°C° 0 mm 0 mps 650 mmHg 93%
    22:00 0°C° 0 mm 0 mps 650 mmHg 92%
    23:00 0°C° 0 mm 0 mps 649 mmHg 91%

    20 February, Thursday

    Time Temperature Precipitation Wind Pressure Humidity
    00:00 0°C° 0 mm 1 mps 649 mmHg 90%
    01:00 0°C° 0 mm 1 mps 649 mmHg 89%
    02:00 0°C° 0 mm 1 mps 648 mmHg 88%
    03:00 0°C° 0 mm 1 mps 648 mmHg 87%
    04:00 0°C° 0.1 mm 1 mps 648 mmHg 88%
    05:00 +1°C° 0.1 mm 1 mps 648 mmHg 89%
    06:00 +1°C° 0.1 mm 1 mps 648 mmHg 90%
    07:00 +2°C° 0.2 mm 1 mps 648 mmHg 92%
    08:00 +2°C° 0.2 mm 1 mps 648 mmHg 93%
    09:00 +3°C° 0.2 mm 1 mps 648 mmHg 95%
    10:00 +4°C° 0.2 mm 1 mps 648 mmHg 96%
    11:00 +4°C° 0.2 mm 1 mps 648 mmHg 96%
    12:00 +4°C° 0.2 mm 1 mps 648 mmHg 97%
    13:00 +4°C° 0.2 mm 1 mps 648 mmHg 97%
    14:00 +5°C° 0.2 mm 1 mps 647 mmHg 97%
    15:00 +5°C° 0.2 mm 1 mps 647 mmHg 97%
    16:00 +4°C° 0.1 mm 1 mps 647 mmHg 97%
    17:00 +4°C° 0.1 mm 1 mps 647 mmHg 98%
    18:00 +3°C° 0.1 mm 1 mps 647 mmHg 98%
    19:00 +3°C° 0 mm 1 mps 647 mmHg 98%
    20:00 +2°C° 0 mm 0 mps 648 mmHg 98%
    21:00 +2°C° 0 mm 0 mps 648 mmHg 97%
    22:00 +2°C° 0.1 mm 0 mps 648 mmHg 97%
    23:00 +2°C° 0.1 mm 0 mps 648 mmHg 97%

    21 February, Friday

    Time Temperature Precipitation Wind Pressure Humidity
    00:00 +1°C° 0.1 mm 0 mps 648 mmHg 97%
    01:00 +1°C° 0 mm 0 mps 648 mmHg 97%
    02:00 +1°C° 0 mm 0 mps 648 mmHg 97%
    03:00 0°C° 0 mm 0 mps 648 mmHg 97%
    04:00 +1°C° 0 mm 0 mps 648 mmHg 97%
    05:00 +1°C° 0 mm 0 mps 648 mmHg 97%
    06:00 +1°C° 0 mm 0 mps 649 mmHg 97%
    07:00 +2°C° 0 mm 1 mps 649 mmHg 97%
    08:00 +3°C° 0 mm 1 mps 649 mmHg 96%
    09:00 +3°C° 0 mm 1 mps 650 mmHg 96%
    16:00 +4°C° 0 mm 1 mps 649 mmHg 92%
    17:00 +3°C° 0 mm 1 mps 649 mmHg 92%
    18:00 +2°C° 0 mm 1 mps 649 mmHg 91%
    19:00 +2°C° 0 mm 1 mps 649 mmHg 90%
    20:00 +1°C° 0 mm 1 mps 649 mmHg 88%
    21:00 +1°C° 0 mm 1 mps 650 mmHg 86%
    22:00 +1°C° 0 mm 1 mps 650 mmHg 86%
    23:00 +1°C° 0 mm 1 mps 650 mmHg 86%

    22 February, Saturday

    Time Temperature Precipitation Wind Pressure Humidity
    00:00 +1°C° 0 mm 1 mps 650 mmHg 85%
    01:00 +1°C° 0 mm 1 mps 650 mmHg 86%
    02:00 +1°C° 0 mm 1 mps 650 mmHg 86%
    03:00 +1°C° 0 mm 1 mps 650 mmHg 86%
    04:00 +1°C° 0 mm 1 mps 650 mmHg 86%
    05:00 +1°C° 0 mm 1 mps 650 mmHg 86%
    06:00 +1°C° 0 mm 1 mps 650 mmHg 86%
    07:00 +2°C° 0 mm 1 mps 651 mmHg 85%
    08:00 +3°C° 0 mm 1 mps 651 mmHg 84%
    09:00 +4°C° 0 mm 1 mps 651 mmHg 84%
    10:00 +4°C° 0 mm 1 mps 651 mmHg 84%
    11:00 +5°C° 0 mm 1 mps 651 mmHg 85%
    12:00 +5°C° 0 mm 1 mps 651 mmHg 85%
    13:00 +5°C° 0 mm 1 mps 651 mmHg 85%
    14:00 +5°C° 0 mm 1 mps 650 mmHg 85%
    15:00 +4°C° 0 mm 0 mps 650 mmHg 85%
    16:00 +3°C° 0 mm 0 mps 650 mmHg 86%
    17:00 +2°C° 0 mm 0 mps 650 mmHg 87%
    18:00 +1°C° 0 mm 0 mps 649 mmHg 88%
    19:00 +2°C° 0 mm 1 mps 650 mmHg 87%
    20:00 +2°C° 0 mm 1 mps 650 mmHg 85%
    21:00 +1°C° 0 mm 1 mps 650 mmHg 84%
    22:00 +1°C° 0 mm 1 mps 650 mmHg 83%
    23:00 +1°C° 0 mm 1 mps 650 mmHg 82%
    Show more